Jacksonville, FL

9:23 AM EDT on June 28, 2017 (GMT -0400)
Jacksonville International

Weather History for KJAX - July, 2013

Change the Weather History Date:

Friday, July 12, 2013

  Actual Average Record
Temperature  
Mean Temperature 81 °F 82 °F  
Max Temperature 88 °F 92 °F 102 °F (1879)
Min Temperature 73 °F 73 °F 66 °F (1890)
Degree Days  
Heating Degree Days 0 0  
Month to date heating degree days 0 0  
Since 1 June heating degree days 0 0  
Since 1 July heating degree days 0 0  
Cooling Degree Days 16 17  
Month to date cooling degree days 188 204  
Year to date cooling degree days 1097 1137  
Since 1 June cooling degree days 661 653  
Growing Degree Days 30 (Base 50)    
Moisture  
Dew Point 73 °F    
Average Humidity 82    
Maximum Humidity 100    
Minimum Humidity 63    
Precipitation  
Precipitation T in 0.20 in 3.97 in (1991)
Month to date precipitation 3.94 2.53  
Year to date precipitation 25.70 24.54  
Snow  
Snow 0.00 in 0.00 in 0.00 in (2002)
Month to date snowfall 0.0 0.0  
Since 1 June snowfall 0.0 0.0  
Since 1 July snowfall 0.0 0.0  
Snow Depth 0.00 in    
Sea Level Pressure  
Sea Level Pressure 29.92 in    
Wind  
Wind Speed 4 mph (SSW)    
Max Wind Speed 18 mph    
Max Gust Speed 22 mph    
Visibility 10 miles    
Events Rain , Thunderstorm    
T = Trace of Precipitation, MM = Missing Value Source: NWS Daily Summary

Daily Weather History Graph

Daily Weather History Graph

Search for Another Location

Airport or City:

Trip Planner

Search our weather history database for the weather conditions in past years. The results will help you decide how hot, cold, wet, or windy it might be!

Date:

Astronomy

Jul. 12, 2013 Rise Set
Actual Time 6:33 AM EDT 8:31 PM EDT
Civil Twilight 6:06 AM EDT 8:58 PM EDT
Nautical Twilight 5:33 AM EDT 9:31 PM EDT
Astronomical Twilight 4:58 AM EDT 10:06 PM EDT
Moon 10:28 AM EDT (7/12) 11:04 PM EDT (7/12)
Length of Visible Light 14h 52m
Length of Day
13h 58m
Waxing Crescent, 17% of the Moon is Illuminated
Jul 12
Waxing Crescent
Jul 15
First Quarter
Jul 22
Full
Jul 29
Last Quarter
Aug 6
New

Hourly Weather History & Observations

Time (EDT) Temp. Heat Index Dew Point Humidity Pressure Visibility Wind Dir Wind Speed Gust Speed Precip Events Conditions
12:56 AM 73.9 °F - 73.0 °F 97% 29.95 in 10.0 mi South 4.6 mph - N/A   Mostly Cloudy
1:56 AM 73.9 °F - 72.0 °F 93% 29.94 in 10.0 mi SSW 4.6 mph - N/A   Mostly Cloudy
2:56 AM 73.9 °F - 72.0 °F 93% 29.92 in 10.0 mi WSW 3.5 mph - N/A   Mostly Cloudy
3:56 AM 73.0 °F - 72.0 °F 96% 29.90 in 9.0 mi Calm Calm - N/A   Mostly Cloudy
4:56 AM 73.0 °F - 71.1 °F 93% 29.90 in 9.0 mi South 4.6 mph - N/A   Mostly Cloudy
5:56 AM 73.0 °F - 72.0 °F 96% 29.91 in 8.0 mi Calm Calm - N/A   Mostly Cloudy
6:56 AM 73.0 °F - 72.0 °F 96% 29.91 in 7.0 mi South 3.5 mph - N/A   Scattered Clouds
7:56 AM 75.9 °F - 73.9 °F 94% 29.93 in 10.0 mi SSW 3.5 mph - N/A   Mostly Cloudy
8:56 AM 78.1 °F - 75.0 °F 90% 29.94 in 10.0 mi SSW 5.8 mph - N/A   Mostly Cloudy
9:56 AM 82.0 °F 88.6 °F 75.0 °F 79% 29.94 in 10.0 mi SSW 6.9 mph - N/A   Mostly Cloudy
10:56 AM 84.9 °F 92.1 °F 73.9 °F 69% 29.94 in 10.0 mi WSW 6.9 mph - N/A   Mostly Cloudy
11:56 AM 84.9 °F 90.7 °F 72.0 °F 65% 29.92 in 10.0 mi Variable 4.6 mph - N/A   Mostly Cloudy
12:56 PM 87.1 °F 94.5 °F 73.0 °F 63% 29.91 in 10.0 mi Variable 4.6 mph - N/A   Mostly Cloudy
1:42 PM 80.6 °F 85.4 °F 73.4 °F 79% 29.91 in 10.0 mi West 11.5 mph - 0.00 in Rain , Thunderstorm Light Thunderstorms and Rain
1:56 PM 80.1 °F 84.5 °F 73.9 °F 81% 29.91 in 10.0 mi WSW 10.4 mph - 0.00 in Rain , Thunderstorm Light Thunderstorms and Rain
2:50 PM 77.0 °F - 73.4 °F 89% 29.91 in 10.0 mi SSW 4.6 mph - 0.00 in   Overcast
2:56 PM 77.0 °F - 73.0 °F 88% 29.92 in 10.0 mi Calm Calm - 0.00 in   Overcast
3:56 PM 80.1 °F 85.1 °F 75.0 °F 85% 29.92 in 10.0 mi West 5.8 mph - 0.00 in   Overcast
4:56 PM 82.0 °F 87.4 °F 73.0 °F 74% 29.91 in 10.0 mi Calm Calm - N/A   Overcast
5:56 PM 81.0 °F 86.2 °F 73.9 °F 79% 29.90 in 10.0 mi South 4.6 mph - N/A   Mostly Cloudy
6:56 PM 80.1 °F 84.5 °F 73.9 °F 81% 29.90 in 10.0 mi South 6.9 mph - N/A   Overcast
7:56 PM 78.1 °F - 73.0 °F 84% 29.90 in 10.0 mi South 6.9 mph - N/A   Overcast
8:56 PM 78.1 °F - 73.9 °F 87% 29.91 in 10.0 mi Calm Calm - N/A   Overcast
9:56 PM 77.0 °F - 73.9 °F 90% 29.93 in 10.0 mi South 3.5 mph - N/A   Overcast
10:56 PM 77.0 °F - 73.9 °F 90% 29.94 in 10.0 mi South 4.6 mph - N/A   Overcast
11:56 PM 77.0 °F - 73.9 °F 90% 29.94 in 10.0 mi South 3.5 mph - 0.00 in   Overcast